Flag for Dominican Republic Weather past 2 weeks in Puerto Plata, Dominican Republic

Now
72 °F

Passing clouds.


Feels Like: 67 °F
Forecast: 75 / 85 °F
Wind: No wind

Location: Puerto Plata International

Current Time: Dec 23, 2014 at 1:23:58 AM

Latest Report: Dec 22, 2014 at 11:00 PM


Visibility: N/A

Pressure: 29.98 "Hg

Humidity: 94%

Dew point: 70 °F

Location of Puerto PlataLocation

Historic Weather in Puerto Plata — Graph

°F

Puerto Plata temperature yesterday

Maximum temperature yesterday: 84 °F (at 1:00 PM)
Minimum temperature yesterday: 68 °F (at 8:00 AM)
Average temperature yesterday: 77 °F

Past Weeks' High & Low Weather Summary

 TemperatureHumidityPressure
High86 °F (Dec 9, 2:00 PM)100% (Dec 8, 2:00 AM)32.52 "Hg (Dec 8, 2:00 AM)
Low64 °F (Dec 9, 5:00 AM)55% (Dec 22, 1:00 PM)29.86 "Hg (Dec 9, 4:00 PM)
Average76 °F83%30.01 "Hg
* Reported Dec 8 2:00 AM — Dec 22 11:00 PM, Puerto Plata, Weather by CustomWeather, © 2014

Note: Actual official high and low records may vary slightly from our data, if they occured in-between our weather recording intervals... More about our weather records

Advertising

Puerto Plata weather history for previous 24 hours

 ConditionsComfort  
Time TempWeatherWind HumidityBarometerVisibility
11:00 PM
Dec 22
72 °FPassing clouds.No wind94%29.98 "HgN/A
8:00 PM75 °FPassing clouds.12 mph83%29.98 "HgN/A
7:00 PM77 °FPassing clouds.6 mph79%29.95 "HgN/A
6:00 PM79 °FPassing clouds.12 mph74%29.95 "HgN/A
5:00 PM81 °FPassing clouds.13 mph66%29.95 "HgN/A
4:00 PM82 °FPassing clouds.15 mph66%29.95 "HgN/A
3:00 PM84 °FPassing clouds.17 mph70%29.98 "HgN/A
2:00 PM84 °FPassing clouds.12 mph55%30.01 "HgN/A
1:00 PM84 °FPassing clouds.12 mph55%30.01 "HgN/A
12:00 PM82 °FPassing clouds.8 mph66%30.04 "HgN/A
11:00 AM81 °FPassing clouds.12 mph70%30.07 "HgN/A
10:00 AM79 °FPassing clouds.No wind74%30.07 "HgN/A
9:00 AM73 °FPassing clouds.3 mph83%30.04 "HgN/A
8:00 AM68 °FPassing clouds.No wind100%30.04 "HgN/A
7:00 AM70 °FPassing clouds.No wind94%30.01 "HgN/A
5:00 AM70 °FClear.No wind94%30.09 "Hg10 mi
2:00 AM70 °FClear.No wind94%30.07 "Hg10 mi
Weather by CustomWeather, © 2014

See weather overviewHow to use our weather pages